| time (UTC) | temp C | wind direction | speed KPH | gust KPH | rain 1hr cm | rain 24hr cm | rain mn cm | humidity % | barometer mb |
| 20260508153042 | 23 | 167 | 0.0 | 1.6 | 0.00 | 0.00 | 0.00 | 44 | 1015.5 |
| 20260508151529 | 24 | 126 | 0.0 | 1.6 | 0.00 | 0.00 | 0.00 | 44 | 1015.7 |
| 20260508150032 | 23 | 81 | 0.0 | 1.6 | 0.00 | 0.00 | 0.00 | 45 | 1015.7 |
| 20260508144529 | 23 | 81 | 0.0 | 1.6 | 0.00 | 0.00 | 0.00 | 46 | 1015.8 |
| 20260508143025 | 22 | 82 | 0.0 | 3.2 | 0.00 | 0.00 | 0.00 | 47 | 1015.9 |
| 20260508141525 | 24 | 236 | 0.0 | 3.2 | 0.00 | 0.00 | 0.00 | 47 | 1016.1 |
| 20260508140025 | 23 | 87 | 0.0 | 1.6 | 0.00 | 0.00 | 0.00 | 45 | 1016.2 |
| 20260508134519 | 23 | 223 | 0.0 | 3.2 | 0.00 | 0.00 | 0.00 | 52 | 1016.3 |
| 20260508133017 | 23 | 97 | 0.0 | 4.8 | 0.00 | 0.00 | 0.00 | 55 | 1016.4 |
| 20260508131514 | 22 | 137 | 0.0 | 1.6 | 0.00 | 0.00 | 0.00 | 54 | 1016.6 |
| 20260508130027 | 22 | 81 | 0.0 | 6.4 | 0.00 | 0.00 | 0.00 | 58 | 1016.8 |
| 20260508124509 | 22 | 79 | 0.0 | 3.2 | 0.00 | 0.00 | 0.00 | 59 | 1017.0 |
| 20260508123012 | 22 | 84 | 0.0 | 1.6 | 0.00 | 0.00 | 0.00 | 63 | 1017.1 |
| 20260508121504 | 21 | 85 | 0.0 | 1.6 | 0.00 | 0.00 | 0.00 | 63 | 1017.4 |
| 20260508120003 | 21 | 94 | 0.0 | 8.0 | 0.00 | 0.00 | 0.00 | 64 | 1017.5 |
| 20260508114603 | 21 | 84 | 0.0 | 1.6 | 0.00 | 0.00 | 0.00 | 64 | 1017.5 |
| 20260508113108 | 20 | 236 | 0.0 | 1.6 | 0.00 | 0.00 | 0.00 | 64 | 1017.7 |
| 20260508111554 | 20 | 69 | 0.0 | 4.8 | 0.00 | 0.00 | 0.00 | 64 | 1017.8 |
| 20260508110105 | 20 | 76 | 0.0 | 1.6 | 0.00 | 0.00 | 0.00 | 66 | 1017.8 |
| 20260508104550 | 20 | 68 | 1.6 | 4.8 | 0.00 | 0.00 | 0.00 | 65 | 1018.0 |
| 20260508103059 | 19 | 102 | 0.0 | 4.8 | 0.00 | 0.00 | 0.00 | 68 | 1018.1 |
| 20260508101552 | 18 | 76 | 0.0 | 3.2 | 0.00 | 0.00 | 0.00 | 70 | 1018.2 |
| 20260508100042 | 17 | 219 | 0.0 | 3.2 | 0.00 | 0.00 | 0.00 | 72 | 1018.3 |
| 20260508094538 | 16 | 75 | 0.0 | 3.2 | 0.00 | 0.00 | 0.00 | 74 | 1018.6 |
| 20260508093040 | 16 | 84 | 0.0 | 3.2 | 0.00 | 0.00 | 0.00 | 74 | 1018.7 |
| 20260508091535 | 15 | 82 | 0.0 | 1.6 | 0.00 | 0.00 | 0.00 | 77 | 1018.9 |
| 20260508090029 | 13 | 244 | 0.0 | 3.2 | 0.00 | 0.00 | 0.00 | 82 | 1019.0 |
| 20260508084525 | 12 | 162 | 0.0 | 1.6 | 0.00 | 0.00 | 0.00 | 85 | 1019.1 |
| 20260508083024 | 12 | 248 | 0.0 | 3.2 | 0.00 | 0.00 | 0.00 | 85 | 1019.1 |
| 20260508081520 | 11 | 68 | 0.0 | 0.0 | 0.00 | 0.00 | 0.00 | 91 | 1019.0 |
| 20260508080017 | 10 | 243 | 0.0 | 1.6 | 0.00 | 0.00 | 0.00 | 92 | 1019.0 |
| 20260508074519 | 10 | 250 | 0.0 | 1.6 | 0.00 | 0.00 | 0.00 | 93 | 1018.9 |
| 20260508073013 | 9 | 250 | 0.0 | 1.6 | 0.00 | 0.00 | 0.00 | 93 | 1018.9 |
| 20260508071516 | 9 | 233 | 0.0 | 0.0 | 0.00 | 0.00 | 0.00 | 95 | 1018.9 |
| 20260508070013 | 8 | 221 | 0.0 | 0.0 | 0.00 | 0.00 | 0.00 | 95 | 1018.9 |
| 20260508064511 | 8 | 238 | 0.0 | 1.6 | 0.00 | 0.00 | 0.00 | 95 | 1019.0 |
| 20260508063015 | 8 | 249 | 0.0 | 1.6 | 0.00 | 0.00 | 0.00 | 95 | 1018.9 |
| 20260508061510 | 8 | 253 | 0.0 | 1.6 | 0.00 | 0.00 | 0.00 | 95 | 1018.8 |
| 20260508060008 | 8 | 253 | 0.0 | 0.0 | 0.00 | 0.00 | 0.00 | 95 | 1018.7 |
| 20260508054508 | 8 | 253 | 0.0 | 0.0 | 0.00 | 0.03 | 0.00 | 96 | 1018.6 |
| 20260508053007 | 7 | 253 | 0.0 | 0.0 | 0.00 | 0.03 | 0.00 | 96 | 1018.5 |
| 20260508051507 | 7 | 253 | 0.0 | 0.0 | 0.00 | 0.03 | 0.00 | 96 | 1018.5 |
| 20260508050008 | 7 | 253 | 0.0 | 0.0 | 0.00 | 0.03 | 0.00 | 96 | 1018.5 |
| 20260508044505 | 7 | 253 | 0.0 | 0.0 | 0.00 | 0.03 | 0.00 | 96 | 1018.5 |
| 20260508043004 | 7 | 253 | 0.0 | 0.0 | 0.00 | 0.03 | 0.00 | 95 | 1018.4 |
| 20260508041504 | 6 | 253 | 0.0 | 0.0 | 0.00 | 0.03 | 0.00 | 93 | 1018.4 |
| 20260508040001 | 7 | 253 | 0.0 | 0.0 | 0.00 | 0.03 | 0.00 | 94 | 1018.4 |
| 20260508034613 | 7 | 253 | 0.0 | 0.0 | 0.00 | 0.05 | 0.00 | 94 | 1018.2 |
| 20260508033059 | 7 | 253 | 0.0 | 0.0 | 0.00 | 0.05 | 0.00 | 94 | 1018.0 |
| 20260508031557 | 7 | 253 | 0.0 | 0.0 | 0.00 | 0.05 | 0.00 | 93 | 1018.1 |
| 20260508030059 | 7 | 253 | 0.0 | 0.0 | 0.00 | 0.05 | 0.00 | 93 | 1018.3 |
| 20260508024555 | 7 | 253 | 0.0 | 0.0 | 0.00 | 0.05 | 0.00 | 93 | 1018.2 |
| 20260508023053 | 7 | 253 | 0.0 | 0.0 | 0.00 | 0.05 | 0.00 | 93 | 1018.0 |
| 20260508021559 | 7 | 253 | 0.0 | 0.0 | 0.00 | 0.05 | 0.00 | 93 | 1017.9 |
| 20260508020057 | 7 | 253 | 0.0 | 0.0 | 0.00 | 0.05 | 0.00 | 93 | 1017.9 |
| 20260508014550 | 8 | 253 | 0.0 | 0.0 | 0.00 | 0.13 | 0.00 | 93 | 1017.9 |
| 20260508013056 | 8 | 253 | 0.0 | 0.0 | 0.00 | 0.13 | 0.00 | 93 | 1017.8 |
| 20260508011552 | 8 | 253 | 0.0 | 0.0 | 0.00 | 0.13 | 0.00 | 93 | 1017.6 |
| 20260508010046 | 8 | 253 | 0.0 | 0.0 | 0.00 | 0.13 | 0.00 | 93 | 1017.9 |
| 20260508004545 | 8 | 253 | 0.0 | 0.0 | 0.00 | 0.23 | 0.00 | 92 | 1017.8 |
| 20260508003044 | 8 | 253 | 0.0 | 0.0 | 0.00 | 0.23 | 0.00 | 92 | 1017.9 |
| 20260508001606 | 8 | 253 | 0.0 | 0.0 | 0.00 | 0.23 | 0.00 | 92 | 1017.8 |
| 20260508000043 | 8 | 253 | 0.0 | 0.0 | 0.00 | 0.23 | 0.00 | 91 | 1018.0 |
| 20260507234539 | 9 | 253 | 0.0 | 0.0 | 0.00 | 0.25 | 0.00 | 92 | 1018.0 |
| 20260507233037 | 9 | 253 | 0.0 | 0.0 | 0.00 | 0.25 | 0.00 | 91 | 1018.1 |
| 20260507231537 | 9 | 253 | 0.0 | 0.0 | 0.00 | 0.25 | 0.00 | 90 | 1018.2 |
| 20260507230033 | 10 | 253 | 0.0 | 0.0 | 0.00 | 0.25 | 0.00 | 91 | 1018.4 |
| 20260507224540 | 10 | 253 | 0.0 | 0.0 | 0.00 | 0.30 | 0.00 | 91 | 1018.4 |
| 20260507223025 | 10 | 253 | 0.0 | 0.0 | 0.00 | 0.30 | 0.00 | 91 | 1018.5 |
| 20260507221522 | 10 | 253 | 0.0 | 0.0 | 0.00 | 0.30 | 0.00 | 91 | 1018.5 |
| 20260507220030 | 10 | 253 | 0.0 | 0.0 | 0.00 | 0.30 | 0.00 | 91 | 1018.4 |
| 20260507214517 | 10 | 253 | 0.0 | 0.0 | 0.00 | 0.30 | 0.30 | 91 | 1018.3 |
| 20260507213015 | 10 | 253 | 0.0 | 0.0 | 0.00 | 0.30 | 0.30 | 90 | 1018.3 |
| 20260507211514 | 10 | 253 | 0.0 | 0.0 | 0.00 | 0.30 | 0.30 | 89 | 1018.3 |
| 20260507210014 | 10 | 253 | 0.0 | 0.0 | 0.00 | 0.30 | 0.30 | 88 | 1018.3 |
| 20260507204512 | 10 | 253 | 0.0 | 0.0 | 0.00 | 0.30 | 0.30 | 88 | 1018.3 |
| 20260507203011 | 10 | 254 | 0.0 | 0.0 | 0.00 | 0.30 | 0.30 | 88 | 1018.2 |
| 20260507201510 | 11 | 253 | 0.0 | 0.0 | 0.00 | 0.30 | 0.30 | 87 | 1018.1 |
| 20260507200011 | 11 | 254 | 0.0 | 0.0 | 0.00 | 0.30 | 0.30 | 85 | 1017.9 |
| 20260507194508 | 11 | 253 | 0.0 | 0.0 | 0.00 | 0.36 | 0.30 | 84 | 1017.9 |
| 20260507193007 | 12 | 253 | 0.0 | 0.0 | 0.00 | 0.36 | 0.30 | 82 | 1017.8 |
| 20260507191506 | 12 | 253 | 0.0 | 1.6 | 0.00 | 0.36 | 0.30 | 81 | 1017.6 |
| 20260507190008 | 13 | 253 | 0.0 | 0.0 | 0.00 | 0.36 | 0.30 | 81 | 1017.4 |
| 20260507184506 | 13 | 253 | 0.0 | 0.0 | 0.00 | 0.46 | 0.30 | 79 | 1017.3 |
| 20260507183006 | 14 | 253 | 0.0 | 0.0 | 0.00 | 0.46 | 0.30 | 77 | 1017.2 |
| 20260507181504 | 15 | 253 | 0.0 | 0.0 | 0.00 | 0.46 | 0.30 | 74 | 1017.2 |
| 20260507180005 | 15 | 253 | 0.0 | 1.6 | 0.00 | 0.46 | 0.30 | 72 | 1017.2 |
| 20260507174504 | 15 | 252 | 0.0 | 1.6 | 0.00 | 0.58 | 0.30 | 70 | 1016.9 |
| 20260507173003 | 16 | 250 | 0.0 | 1.6 | 0.00 | 0.58 | 0.30 | 70 | 1016.7 |
| 20260507171507 | 16 | 124 | 0.0 | 1.6 | 0.00 | 0.58 | 0.30 | 70 | 1017.0 |
| 20260507170002 | 16 | 120 | 0.0 | 1.6 | 0.00 | 0.58 | 0.30 | 68 | 1016.7 |
| 20260507164501 | 16 | 96 | 0.0 | 4.8 | 0.00 | 0.71 | 0.30 | 67 | 1016.6 |
| 20260507163100 | 17 | 99 | 0.0 | 1.6 | 0.00 | 0.71 | 0.30 | 67 | 1016.5 |
| 20260507163001 | 17 | 94 | 0.0 | 1.6 | 0.00 | 0.71 | 0.30 | 66 | 1016.6 |
| 20260507161601 | 16 | 94 | 1.6 | 3.2 | 0.00 | 0.71 | 0.30 | 65 | 1016.7 |
| 20260507160100 | 17 | 75 | 0.0 | 1.6 | 0.00 | 0.71 | 0.30 | 67 | 1016.7 |
| 20260507154604 | 17 | 75 | 0.0 | 3.2 | 0.00 | 0.84 | 0.30 | 65 | 1016.7 |